Historique des stations

Station météo de Boisseaux

Altitude de la station : 132 m







Données météorologiques pour le 20/01/2022
Date
Heure
Températures Humidité Point de rosée Vitesse
du vent
Direction Rafales Windchill Pression Pluviométrie
Cumul
Date
Heure
Températures Humidité Point de rosée Vitesse
du vent
Direction Rafales Windchill Pression Pluviométrie
Cumul
20/01/2022 11:023.8 °C94 %2.8 °C2 km/hOSO6 km/h3.3 1034 hPa0.4 mm
20/01/2022 11:003.7 °C94 %2.8 °C2 km/hNO11 km/h3.3 1034 hPa0.4 mm
20/01/2022 10:483.2 °C95 %2.8 °C-OSO5 km/h3.3 1033 hPa0.4 mm
20/01/2022 10:453.1 °C95 %2.2 °C2 km/hN11 km/h2.8 1033 hPa0.4 mm
20/01/2022 10:332.7 °C95 %2.2 °C2 km/hONO3 km/h2.2 1033 hPa0.4 mm
20/01/2022 10:302.6 °C95 %1.7 °C-ONO11 km/h2.8 1033 hPa0.4 mm
20/01/2022 10:172.2 °C95 %1.7 °C-O3 km/h2.2 1033 hPa0.4 mm
20/01/2022 10:152.1 °C95 %1.7 °C-O11 km/h2.2 1034 hPa0.4 mm
20/01/2022 10:021.7 °C95 %1.1 °C-ONO3 km/h1.7 1034 hPa0.4 mm
20/01/2022 10:001.7 °C95 %1.1 °C2 km/hONO11 km/h1.1 1034 hPa0.4 mm
20/01/2022 09:471.3 °C95 %0.6 °C2 km/hONO5 km/h0.6 1033 hPa0.4 mm
20/01/2022 09:451.3 °C95 %0.6 °C2 km/hONO11 km/h0.6 1033 hPa0.4 mm
20/01/2022 09:331.1 °C95 %0.6 °C-ONO3 km/h1.1 1033 hPa0.4 mm
20/01/2022 09:301.1 °C95 %0.6 °C-ONO11 km/h1.1 1033 hPa0.4 mm
20/01/2022 09:170.9 °C96 %0.6 °C3 km/hO5 km/h0.0 1033 hPa0.2 mm
20/01/2022 09:150.9 °C96 %0.6 °C3 km/hNO11 km/h0.0 1033 hPa0.2 mm
20/01/2022 09:020.6 °C96 %0.0 °C-OSO3 km/h0.6 1033 hPa0.2 mm
20/01/2022 09:000.6 °C96 %0.0 °C-NO11 km/h0.6 1033 hPa0.2 mm
20/01/2022 08:470.6 °C96 %0.0 °C-ONO2 km/h0.6 1033 hPa0.2 mm
20/01/2022 08:440.6 °C96 %0.0 °C2 km/hONO11 km/h0.0 1033 hPa0.2 mm
20/01/2022 08:320.7 °C96 %0.0 °C-O3 km/h0.6 1033 hPa0.2 mm
20/01/2022 08:290.8 °C96 %0.6 °C-OSO11 km/h1.1 1033 hPa0.2 mm
20/01/2022 08:160.8 °C96 %0.0 °C-ONO2 km/h0.6 1032 hPa0.2 mm
20/01/2022 08:140.8 °C96 %0.6 °C2 km/hO11 km/h0.6 1032 hPa0.2 mm
20/01/2022 08:020.8 °C96 %0.0 °C2 km/hNO3 km/h0.0 1032 hPa0.2 mm
20/01/2022 07:590.8 °C96 %0.0 °C-ONO11 km/h0.6 1032 hPa0.2 mm
20/01/2022 07:470.8 °C96 %0.0 °C-ONO2 km/h0.6 1032 hPa0.2 mm
20/01/2022 07:440.8 °C96 %0.0 °C-NO11 km/h0.6 1032 hPa0.2 mm
20/01/2022 07:320.7 °C96 %0.0 °C-ONO3 km/h0.6 1032 hPa0.2 mm
20/01/2022 07:290.8 °C96 %0.0 °C-ONO11 km/h0.6 1032 hPa0.2 mm
20/01/2022 07:170.8 °C96 %0.6 °C-ONO3 km/h1.1 1032 hPa0.2 mm
20/01/2022 07:140.9 °C96 %0.6 °C-ONO11 km/h1.1 1032 hPa0.2 mm
20/01/2022 07:021.2 °C96 %0.6 °C-O3 km/h1.1 1032 hPa0.2 mm
20/01/2022 06:591.3 °C96 %0.6 °C2 km/hNO11 km/h0.6 1031 hPa0.2 mm
20/01/2022 06:471.4 °C97 %1.1 °C2 km/hONO3 km/h1.1 1031 hPa0.2 mm
20/01/2022 06:441.5 °C97 %1.1 °C2 km/hO11 km/h1.1 1031 hPa0.2 mm
20/01/2022 06:321.6 °C97 %1.1 °C2 km/hNO5 km/h1.1 1032 hPa0.2 mm
20/01/2022 06:291.6 °C97 %1.1 °C2 km/hONO11 km/h1.1 1032 hPa0.2 mm
20/01/2022 06:171.7 °C97 %1.1 °C---1.7 1031 hPa0.2 mm
20/01/2022 06:141.6 °C97 %1.1 °C-NO11 km/h1.7 1031 hPa0.2 mm
20/01/2022 06:021.4 °C97 %1.1 °C-O2 km/h1.7 1031 hPa0.2 mm
20/01/2022 05:591.2 °C97 %1.1 °C-O11 km/h1.1 1031 hPa0.2 mm
20/01/2022 05:471.2 °C96 %0.6 °C-O2 km/h1.1 1031 hPa0.2 mm
20/01/2022 05:441.1 °C96 %0.6 °C-O11 km/h1.1 1031 hPa0.2 mm
20/01/2022 05:321.2 °C96 %0.6 °C---1.1 1031 hPa0.2 mm
20/01/2022 05:291.3 °C96 %0.6 °C-OSO11 km/h1.1 1031 hPa0.2 mm
20/01/2022 05:171.6 °C96 %1.1 °C-OSO2 km/h1.7 1031 hPa0.2 mm
20/01/2022 05:141.7 °C96 %1.1 °C-OSO11 km/h1.7 1031 hPa0.2 mm
20/01/2022 05:022.1 °C96 %1.7 °C-OSO2 km/h2.2 1031 hPa0.2 mm
20/01/2022 04:592.2 °C96 %1.7 °C-OSO11 km/h2.2 1031 hPa0.2 mm
20/01/2022 04:472.3 °C96 %1.7 °C-ONO2 km/h2.2 1031 hPa0.2 mm
20/01/2022 04:442.3 °C95 %1.7 °C-O11 km/h2.2 1030 hPa0.2 mm
20/01/2022 04:322.6 °C95 %1.7 °C-O2 km/h2.8 1031 hPa0.2 mm
20/01/2022 04:302.7 °C95 %2.2 °C-O11 km/h2.8 1030 hPa0.2 mm
20/01/2022 04:172.9 °C95 %2.2 °C-ONO3 km/h2.8 1031 hPa0.2 mm
20/01/2022 04:152.9 °C95 %2.2 °C-O11 km/h2.8 1031 hPa0.2 mm
20/01/2022 04:023.3 °C95 %2.8 °C2 km/hNO5 km/h2.8 1031 hPa0.2 mm
20/01/2022 04:003.3 °C95 %2.8 °C-NO11 km/h3.3 1031 hPa0.2 mm
20/01/2022 03:473.4 °C96 %2.8 °C-NO3 km/h3.3 1031 hPa0.2 mm
20/01/2022 03:453.5 °C96 %2.8 °C-ONO11 km/h3.3 1031 hPa0.2 mm
20/01/2022 03:323.3 °C95 %2.8 °C2 km/hO5 km/h2.8 1031 hPa0.2 mm
20/01/2022 03:303.3 °C95 %2.8 °C2 km/hO11 km/h2.8 1030 hPa0.2 mm
20/01/2022 03:173.3 °C95 %2.8 °C2 km/hNO6 km/h2.8 1030 hPa0.2 mm
20/01/2022 03:153.4 °C95 %2.8 °C-O11 km/h3.3 1030 hPa-
20/01/2022 03:023.5 °C95 %2.8 °C3 km/hNO3 km/h2.2 1030 hPa-
20/01/2022 03:003.5 °C95 %2.8 °C-OSO11 km/h3.3 1030 hPa-
20/01/2022 02:473.8 °C95 %3.3 °C2 km/hONO3 km/h3.3 1030 hPa-
20/01/2022 02:453.8 °C95 %3.3 °C-ONO11 km/h3.9 1030 hPa-
20/01/2022 02:323.9 °C95 %3.3 °C-N2 km/h3.9 1030 hPa-
20/01/2022 02:304.0 °C95 %3.3 °C-N11 km/h3.9 1030 hPa-
20/01/2022 02:174.4 °C95 %3.9 °C-N3 km/h4.4 1030 hPa-
20/01/2022 02:154.5 °C95 %3.9 °C-NNO11 km/h4.4 1030 hPa-
20/01/2022 02:024.9 °C94 %3.9 °C-OSO5 km/h5.0 1030 hPa-
20/01/2022 02:004.9 °C94 %3.9 °C2 km/hONO11 km/h5.0 1030 hPa-
20/01/2022 01:475.1 °C95 %4.4 °C-O6 km/h5.0 1030 hPa-
20/01/2022 01:455.2 °C95 %4.4 °C2 km/hO11 km/h5.0 1030 hPa-
20/01/2022 01:315.2 °C95 %4.4 °C5 km/hOSO8 km/h4.4 1030 hPa-
20/01/2022 01:295.2 °C95 %4.4 °C6 km/hNO11 km/h3.9 1030 hPa-
20/01/2022 01:165.3 °C95 %4.4 °C3 km/hO5 km/h5.0 1030 hPa-
20/01/2022 01:145.3 °C95 %4.4 °C2 km/hONO11 km/h5.6 1030 hPa-
20/01/2022 01:015.3 °C95 %4.4 °C6 km/hOSO8 km/h4.4 1030 hPa-
20/01/2022 00:595.4 °C95 %4.4 °C3 km/hONO11 km/h5.0 1030 hPa-
20/01/2022 00:465.4 °C95 %4.4 °C3 km/hOSO11 km/h5.0 1030 hPa-
20/01/2022 00:445.4 °C95 %4.4 °C5 km/hO11 km/h5.0 1030 hPa-
20/01/2022 00:315.3 °C95 %4.4 °C3 km/hO10 km/h5.0 1030 hPa-
20/01/2022 00:295.3 °C95 %4.4 °C5 km/hO10 km/h5.0 1030 hPa-
20/01/2022 00:165.2 °C95 %4.4 °C5 km/hONO8 km/h4.4 1030 hPa-
20/01/2022 00:145.2 °C95 %4.4 °C8 km/hONO10 km/h2.8 1030 hPa-
20/01/2022 00:015.2 °C95 %4.4 °C2 km/hOSO10 km/h5.0 1030 hPa-


Minima :

Température : 0.6 °C
Humidité : 94 %
Point de rosée : 0.0 °C
Vent moyen : 2 km/h
Windchill : 0.0
Pression atm. : 1030 hPa
Maxima :

Température : 5.4 °C
Humidité : 97 %
Point de rosée : 4.4 °C
Vent moyen : 8 km/h
Windchill : 5.6
Pression atm. : 1034 hPa
Rafales max : 11 km/h
Cumul de pluie sur 24H : 0.4 mm

Boisseaux est une commune du département Loiret (45).
La station météorologique du réseau de l'association la plus proche de Boisseaux est celle de Bellegarde



Icône Facebook Association Météo Centre Icône Twitter Association Météo Centre Icône Chaîne Youtube Association Météo Centre Icône contact Association Météo Centre Icône Insta Association Météo Centre